Wind_Speed
26 26 26 27 27 26 25 23 21 19 17 16 15 13 13 12 12 11 10 10 9 8 7 6 6 5 4 4 4 5 5 5 4 4 4 3 2 2 3 4 5 6 7
27 26 26 27 28 28 28 26 24 22 20 18 17 16 15 14 13 13 12 11 10 9 8 8 7 6 5 5 5 5 5 5 5 5 4 4 3 3 4 4 5 6 8
27 27 27 27 29 30 30 29 27 25 23 21 19 18 17 15 15 14 14 12 12 11 10 9 8 7 7 6 6 6 6 6 6 6 6 5 5 5 4 5 6 7 8
28 28 28 28 29 31 32 32 30 28 25 24 22 20 19 18 17 16 15 14 13 12 11 11 10 9 8 8 8 8 8 7 7 7 7 6 6 6 6 6 7 7 8
30 30 30 30 30 32 33 34 33 31 28 26 24 23 21 20 19 18 17 16 15 14 13 12 11 10 9 9 9 9 9 9 9 8 8 8 7 7 7 7 8 8 9
32 32 32 32 32 32 33 34 35 34 31 29 27 25 24 22 21 20 19 18 16 15 15 14 13 12 11 11 11 11 10 10 10 10 10 9 9 9 9 9 9 10 10
35 34 33 33 35 35 34 35 36 36 34 32 30 28 26 24 23 22 20 19 18 17 16 15 15 14 13 12 12 12 12 12 12 11 11 11 11 10 10 10 11 11 12
38 36 36 35 36 36 37 36 37 37 37 35 33 30 29 27 25 23 22 21 20 19 18 17 16 16 15 14 14 14 14 13 13 13 13 13 12 12 12 12 13 13 14
41 39 38 37 37 38 38 39 39 39 38 38 35 33 31 29 27 25 24 23 22 21 20 19 18 17 17 16 16 15 15 15 15 15 14 14 14 14 14 15 15 16 16
43 41 41 40 39 39 40 40 41 40 40 39 38 36 33 31 29 27 25 24 23 22 21 20 20 19 19 18 17 17 17 17 17 17 17 16 16 16 17 17 17 18 18
45 44 43 42 41 41 41 42 42 42 42 41 40 38 36 33 31 29 27 26 25 24 23 22 22 21 20 20 19 19 19 18 18 18 18 18 18 18 18 19 19 19 20
47 46 45 45 43 42 42 43 43 43 43 42 41 40 38 36 34 31 29 28 27 26 25 24 23 23 22 22 21 21 21 20 20 20 20 20 20 20 21 21 21 21 22
50 49 47 47 46 44 43 44 45 44 44 44 43 42 40 38 36 33 31 30 29 28 27 26 25 25 24 24 23 23 22 22 22 22 22 22 22 23 23 23 23 23 24
52 51 50 48 48 47 45 46 46 46 46 46 45 43 42 40 38 36 33 32 31 30 29 28 27 27 26 26 25 25 24 24 24 24 23 24 24 25 25 25 26 26 26
52 52 52 50 50 49 47 47 47 47 47 47 46 44 43 42 41 39 36 34 33 32 31 30 30 29 28 28 27 27 27 26 26 26 26 26 27 27 27 27 28 28 29
52 52 52 51 50 50 48 47 48 48 48 48 46 46 45 43 42 41 39 37 35 34 33 32 31 30 30 30 29 29 29 29 29 29 28 28 28 29 29 29 29 30 30
53 52 52 52 50 50 50 49 48 48 48 48 47 47 46 45 44 44 42 39 38 36 35 34 33 32 32 32 31 31 31 31 31 31 31 30 30 30 31 31 31 32 32
53 52 52 51 51 51 51 51 50 49 49 48 48 47 47 46 46 45 43 41 39 38 37 36 35 34 34 33 33 33 33 33 32 32 32 32 31 31 32 33 33 34 34
51 50 51 49 49 51 53 52 52 50 50 49 48 47 47 47 47 47 45 43 42 40 40 39 38 37 36 36 34 34 34 34 34 34 34 34 33 33 34 34 34 35 35
48 49 49 49 48 50 51 52 52 52 52 50 49 49 47 47 47 47 46 45 44 42 42 41 39 38 37 37 37 36 36 36 36 36 36 36 36 36 36 36 36 36 36
46 47 48 47 47 48 50 50 51 51 50 49 49 49 47 48 48 48 47 46 45 44 43 42 41 40 39 39 39 39 39 39 39 38 38 38 38 39 38 38 38 38 38
42 44 47 47 47 48 48 48 50 51 51 50 50 49 47 47 46 47 48 47 46 44 44 43 42 41 40 40 41 42 42 42 42 42 41 40 40 40 40 40 40 40 40
39 41 44 46 46 45 46 47 48 49 50 49 50 49 48 46 46 46 46 47 47 46 46 44 44 43 42 43 43 43 43 43 44 43 43 43 43 42 42 42 41 41 41
36 39 41 43 44 45 44 43 43 44 45 46 46 45 46 45 45 45 45 46 47 47 47 46 46 46 46 46 45 45 45 45 44 43 43 44 44 44 43 42 42 42 42
31 34 38 39 38 40 41 41 41 40 41 43 44 43 43 44 43 43 44 46 47 47 47 48 48 48 48 47 47 46 47 47 46 45 44 45 45 44 43 42 42 43 43
25 28 32 34 35 36 37 37 37 38 39 39 40 41 40 40 41 42 43 44 45 47 49 50 49 49 49 48 47 48 49 48 47 47 47 46 45 44 44 44 43 42 43
Wind_Direction
243 243 242 240 238 239 239 239 240 242 244 246 248 250 253 256 257 257 259 263 264 263 265 264 261 258 249 236 228 225 228 233 236 241 250 265 288 312 329 339 344 348 351
245 244 244 243 239 239 239 239 239 241 243 244 246 248 250 252 255 255 256 259 261 260 261 261 260 257 251 243 237 236 237 239 242 246 252 261 276 295 309 323 333 340 343
247 245 245 244 241 239 239 239 239 240 242 243 244 246 248 249 252 253 254 255 257 257 258 258 258 257 252 248 245 244 244 246 248 251 255 261 272 286 295 308 320 330 335
248 247 245 245 243 241 239 239 239 240 241 242 242 244 246 248 250 252 252 253 255 256 257 256 257 257 253 250 249 249 249 251 251 253 257 262 270 280 288 297 309 319 325
248 247 246 245 242 241 240 240 239 239 240 241 242 243 244 246 248 250 251 252 254 254 255 256 256 256 255 253 253 253 253 253 252 253 257 261 269 276 283 290 300 309 316
248 246 245 243 241 240 239 239 239 239 239 240 241 243 243 244 246 248 250 251 252 252 254 256 256 256 255 255 256 256 256 255 254 256 258 261 267 273 279 285 293 302 309
248 246 244 243 242 241 240 239 239 239 239 240 241 242 243 244 245 246 248 249 250 251 252 255 256 256 256 256 258 259 258 256 256 257 259 261 265 271 276 282 290 298 303
248 247 244 243 242 240 240 239 239 239 238 239 240 241 243 244 245 246 247 248 248 250 251 253 255 255 256 256 258 259 259 258 258 259 260 262 265 270 275 280 288 294 299
247 247 244 243 241 240 240 240 239 238 238 239 240 241 242 243 245 246 246 247 247 249 251 253 254 255 256 257 258 258 260 260 260 260 261 263 265 269 274 279 285 290 295
245 245 245 242 241 240 239 239 239 237 237 238 239 241 242 243 244 246 246 246 247 249 251 253 254 256 257 258 258 259 260 261 261 262 262 263 266 269 273 278 283 288 291
243 243 243 242 240 239 238 238 237 237 236 237 238 240 241 243 244 245 247 246 247 248 251 253 254 256 257 258 258 259 260 261 262 262 263 265 267 269 273 277 281 285 289
240 239 240 240 239 238 238 236 235 236 235 236 238 238 240 242 244 245 247 247 246 248 250 251 253 255 256 258 259 260 260 260 262 263 264 266 267 270 273 277 280 283 286
238 238 238 239 237 237 237 235 234 235 235 235 236 238 239 241 243 245 246 247 247 249 250 251 252 254 256 257 259 260 260 261 262 263 265 266 268 270 274 277 279 282 285
238 239 238 236 235 236 236 234 234 234 234 234 235 237 238 240 243 244 245 246 247 249 250 251 252 254 255 257 259 259 260 262 263 264 265 267 269 270 273 276 279 281 284
237 237 236 234 234 235 234 233 232 232 232 233 234 235 237 239 241 243 244 245 247 248 249 250 251 254 255 257 258 259 260 262 263 264 266 268 270 271 273 275 278 280 283
237 236 234 233 232 233 232 231 231 232 231 232 233 234 236 239 241 242 243 244 246 248 249 250 252 254 256 258 259 259 261 262 263 264 266 268 269 271 272 275 277 279 281
235 235 233 231 230 230 229 228 229 230 231 231 232 234 236 238 240 241 242 244 246 247 249 251 252 254 257 258 259 260 261 262 263 264 266 268 269 270 272 274 276 278 281
235 233 232 231 229 227 227 228 228 229 230 230 231 233 236 237 239 241 242 243 246 248 250 251 253 254 255 257 258 259 260 262 263 264 266 268 269 271 273 274 276 279 281
233 232 232 229 227 226 225 226 227 227 227 229 231 233 236 238 239 240 241 242 245 248 250 251 251 253 254 256 257 258 260 261 263 264 266 268 269 272 273 275 277 278 280
233 231 229 225 224 223 224 225 226 226 227 228 231 233 234 236 238 239 241 243 245 247 249 250 250 251 253 255 257 259 260 261 263 264 266 267 269 271 273 275 276 277 279
230 227 223 221 222 222 223 225 225 225 226 228 230 233 235 237 237 238 240 242 245 246 248 248 249 251 253 255 258 260 261 262 264 264 265 268 270 272 272 273 275 277 278
225 222 220 221 221 221 222 223 224 225 226 228 229 231 236 237 238 239 240 242 243 244 247 247 249 251 254 256 259 261 262 263 263 265 265 267 269 270 271 273 275 276 277
221 220 218 218 220 221 221 222 223 225 226 227 228 231 234 235 237 237 239 240 241 244 247 248 250 252 254 257 259 262 263 263 263 264 265 267 267 269 271 273 274 275 277
218 217 217 217 218 219 219 221 223 224 225 226 228 230 232 234 236 237 240 243 245 246 247 250 252 253 255 257 259 261 263 263 264 265 266 267 267 269 271 273 274 275 276
209 211 213 214 215 217 219 222 223 224 225 226 228 231 232 234 236 239 242 244 246 249 249 251 252 254 256 257 259 261 262 263 265 265 266 268 268 269 270 273 275 276 276
201 206 209 212 213 216 220 222 223 224 225 226 229 231 232 235 238 241 243 246 249 251 251 252 253 255 257 258 259 261 263 263 263 265 266 268 269 269 269 271 273 276 276
Height
5853 5855 5857 5860 5862 5864 5866 5868 5870 5871 5872 5873 5874 5875 5876 5877 5878 5879 5879 5879 5879 5879 5879 5879 5879 5879 5879 5879 5879 5879 5879 5879 5879 5878 5878 5878 5877 5877 5876 5875 5874 5873 5872
5849 5851 5853 5855 5858 5860 5862 5865 5867 5868 5870 5871 5872 5873 5874 5876 5876 5877 5877 5878 5878 5878 5878 5878 5878 5878 5878 5878 5878 5878 5878 5878 5878 5878 5878 5877 5877 5876 5875 5875 5874 5873 5872
5844 5847 5849 5851 5853 5856 5858 5861 5863 5865 5867 5868 5870 5871 5872 5873 5874 5875 5876 5876 5876 5877 5877 5877 5877 5877 5877 5877 5877 5877 5877 5877 5877 5877 5877 5877 5876 5875 5875 5874 5873 5872 5871
5839 5841 5844 5846 5848 5851 5854 5856 5859 5861 5864 5865 5867 5868 5870 5871 5872 5873 5874 5874 5875 5875 5875 5875 5876 5876 5876 5876 5876 5876 5876 5876 5876 5876 5876 5876 5875 5875 5874 5873 5872 5871 5870
5833 5835 5838 5841 5843 5845 5849 5852 5855 5857 5860 5862 5864 5865 5867 5868 5869 5871 5871 5872 5873 5873 5874 5874 5874 5875 5875 5875 5875 5875 5875 5875 5875 5875 5875 5874 5874 5873 5873 5872 5871 5870 5869
5826 5829 5832 5835 5837 5840 5843 5846 5850 5853 5856 5858 5860 5862 5863 5865 5866 5868 5869 5870 5870 5871 5871 5872 5872 5873 5873 5873 5873 5873 5874 5873 5873 5873 5873 5873 5872 5872 5871 5871 5870 5869 5868
5820 5822 5825 5828 5831 5834 5838 5841 5844 5847 5851 5853 5856 5858 5860 5861 5863 5865 5866 5867 5868 5868 5869 5870 5870 5871 5871 5872 5872 5872 5872 5872 5871 5871 5871 5871 5871 5870 5870 5869 5868 5867 5866
5812 5815 5818 5821 5825 5828 5831 5835 5838 5842 5845 5849 5851 5854 5856 5857 5859 5861 5862 5864 5865 5866 5866 5867 5868 5868 5869 5869 5869 5869 5870 5870 5869 5869 5869 5869 5869 5868 5868 5867 5866 5865 5864
5804 5807 5811 5814 5817 5821 5825 5828 5832 5835 5839 5843 5846 5849 5851 5853 5855 5857 5859 5860 5861 5862 5863 5864 5865 5866 5866 5867 5867 5867 5867 5867 5867 5867 5867 5867 5866 5866 5865 5865 5864 5863 5861
5795 5799 5802 5806 5810 5813 5817 5821 5825 5829 5833 5837 5840 5843 5846 5849 5851 5853 5855 5856 5858 5859 5860 5861 5862 5862 5863 5864 5864 5864 5864 5864 5864 5864 5864 5864 5863 5863 5862 5862 5861 5860 5858
5786 5790 5794 5798 5802 5805 5809 5813 5817 5821 5826 5830 5834 5838 5841 5844 5846 5848 5850 5852 5854 5855 5856 5857 5858 5859 5860 5860 5860 5861 5861 5861 5861 5861 5861 5861 5860 5860 5859 5858 5858 5856 5855
5776 5780 5785 5789 5793 5797 5801 5805 5810 5814 5818 5823 5827 5831 5835 5838 5841 5843 5846 5847 5849 5850 5852 5853 5854 5855 5856 5856 5857 5857 5857 5857 5857 5857 5857 5857 5857 5856 5855 5855 5854 5853 5852
5765 5770 5775 5779 5784 5788 5793 5797 5802 5806 5811 5816 5820 5824 5828 5832 5835 5838 5840 5842 5844 5846 5847 5848 5850 5851 5851 5852 5852 5853 5853 5853 5853 5853 5853 5853 5852 5852 5851 5850 5849 5848 5847
5754 5759 5765 5770 5775 5780 5785 5789 5794 5799 5803 5808 5813 5817 5822 5826 5829 5832 5835 5837 5839 5841 5842 5843 5845 5846 5847 5847 5848 5848 5848 5849 5849 5849 5848 5848 5848 5847 5847 5846 5845 5844 5843
5742 5748 5754 5760 5765 5770 5776 5781 5785 5790 5795 5800 5805 5810 5815 5819 5822 5826 5828 5831 5833 5834 5836 5838 5839 5840 5841 5842 5842 5843 5843 5844 5844 5844 5844 5843 5842 5842 5842 5841 5840 5839 5837
5730 5736 5742 5749 5755 5761 5766 5772 5777 5782 5787 5792 5797 5802 5807 5811 5815 5818 5821 5824 5826 5828 5830 5831 5833 5834 5835 5836 5837 5837 5838 5838 5838 5838 5838 5838 5837 5836 5836 5835 5834 5833 5832
5719 5725 5731 5738 5744 5751 5757 5763 5768 5773 5779 5784 5789 5794 5799 5803 5807 5810 5814 5817 5819 5821 5823 5825 5827 5828 5829 5830 5831 5832 5832 5832 5832 5832 5832 5832 5831 5831 5830 5829 5828 5827 5826
5707 5713 5720 5726 5734 5740 5747 5753 5759 5765 5770 5776 5781 5786 5790 5795 5799 5802 5806 5809 5812 5814 5816 5818 5820 5821 5822 5823 5824 5825 5825 5826 5826 5826 5825 5825 5825 5824 5823 5822 5821 5820 5819
5696 5702 5708 5715 5723 5730 5737 5743 5749 5755 5761 5767 5772 5777 5782 5786 5790 5794 5798 5801 5804 5806 5809 5811 5812 5814 5815 5816 5817 5818 5818 5819 5819 5819 5819 5818 5818 5817 5817 5816 5814 5813 5812
5684 5691 5698 5705 5713 5720 5726 5733 5739 5746 5752 5758 5763 5768 5773 5777 5781 5786 5789 5793 5795 5798 5800 5802 5804 5806 5807 5808 5809 5810 5811 5811 5811 5811 5811 5811 5810 5810 5809 5808 5807 5806 5804
5673 5680 5687 5695 5703 5710 5717 5724 5731 5737 5744 5750 5755 5760 5764 5768 5772 5776 5780 5784 5787 5790 5792 5794 5796 5798 5799 5800 5801 5802 5803 5803 5803 5803 5803 5803 5803 5802 5801 5800 5799 5797 5796
5664 5671 5677 5685 5693 5701 5709 5716 5723 5729 5735 5741 5746 5751 5756 5760 5763 5767 5771 5775 5778 5781 5783 5785 5787 5789 5791 5792 5793 5793 5793 5795 5795 5795 5794 5794 5794 5793 5792 5791 5790 5789 5787
5656 5663 5670 5677 5685 5693 5700 5707 5714 5720 5726 5732 5738 5743 5748 5752 5755 5759 5762 5766 5769 5772 5774 5776 5778 5780 5781 5783 5783 5784 5785 5785 5785 5785 5785 5785 5784 5784 5783 5782 5781 5780 5778
5650 5657 5664 5671 5678 5686 5693 5700 5707 5713 5719 5725 5730 5735 5739 5743 5747 5750 5754 5757 5759 5762 5765 5767 5769 5771 5771 5772 5773 5774 5775 5775 5775 5775 5775 5775 5774 5774 5773 5772 5771 5770 5769
5645 5652 5659 5666 5673 5680 5687 5694 5701 5706 5712 5718 5722 5727 5731 5735 5739 5742 5745 5748 5750 5753 5755 5757 5758 5760 5761 5762 5763 5764 5764 5764 5764 5765 5765 5764 5763 5763 5762 5762 5760 5760 5759
5642 5649 5655 5662 5668 5676 5683 5689 5695 5700 5706 5710 5715 5719 5723 5726 5730 5734 5737 5739 5741 5743 5745 5746 5748 5749 5751 5751 5752 5752 5753 5753 5753 5753 5753 5753 5752 5752 5752 5751 5750 5749 5748